Location: ???????
(55.9142°N, 37.8256°E)
Time: 13:49:55
(UTC+00:00)

Cosmos 2369 Rocket - Pass Details

Date: 14 April 2024
Orbit: 830 x 850 km, 71.0° (Epoch: 18 May)

Event Time Altitude Azimuth Distance (km) Brightness Sun altitude
Rises 01:29:44 0° 325° (NW) 3,401 5.3 -7.9°
Reaches altitude 10° 01:32:12 10° 326° (NNW) 2,460 4.6 -7.6°
Maximum altitude 01:37:52 80° 54° (NE) 854 2.4 -6.9°
Drops below altitude 10° 01:43:28 10° 142° (SE) 2,436 4.8 -6.2°
Sets 01:45:53 0° 143° (SE) 3,365 5.5 -5.9°
